Weather Roundup
Issued by NWS Springfield, MO

Home | Current Version | Previous Version | Text Only | Print | Product List | Glossary On
Versions: 1 2 3 4 5 6 7 8 9 10 11 12 13 14 15 16 17 18 19 20 21 22 23 24 25 26 27 28 29 30 31 32 33 34 35 36 37 38 39 40 41 42 43 44 45 46 47 48 49 50
775
NZUS99 KSGF 241107
HRRSGF

HOURLY WEATHER
NATIONAL WEATHER SERVICE SPRINGFIELD MO
600 AM CDT THU AUG 24 2017

......SGF CWA......

CITY           SKY/WX    TMP DP  RH WIND       PRES   REMARKS
SPRINGFIELD    CLEAR     60  54  80 SE5       30.07R
JOPLIN         CLEAR     61  56  83 CALM      30.06S
WEST PLAINS    CLEAR     54  52  93 CALM      30.09S
ROLLA          CLEAR     56  53  90 CALM      30.10R
OSAGE BEACH    CLEAR     55  54  96 CALM      30.10R
BRANSON          N/A     55  55 100 CALM      30.08S

......SURROUNDING SGF CWA......

CITY           SKY/WX    TMP DP  RH WIND       PRES   REMARKS
CHANUTE        CLEAR     55  54  96 CALM      30.06S
PARSONS        CLEAR     56  55  97 CALM      30.06S
COFFEYVILLE    MOCLDY    58  57  97 NE5       30.04S
EMPORIA        CLEAR     55  54  96 SE3       30.05F
GROVE OK       CLEAR     59  59 100 CALM      30.06R FOG
ROGERS AR      CLEAR     59  57  93 CALM      30.07S
HARRISON AR    CLEAR     57  56  96 CALM      30.08R
NEAR YELLVILLE CLEAR     57  52  82 CALM      30.05R

......KANSAS AND MISSOURI......

CITY           SKY/WX    TMP DP  RH WIND       PRES   REMARKS
KANSAS CTY INT CLEAR     60  56  86 S6        30.07S
DOWNTOWN KC    PTCLDY    65  61  87 CALM      30.06S
COLUMBIA       PTCLDY    59  55  87 E3        30.09R
SEDALIA        CLEAR     58  58 100 CALM      30.09S
ST JOSEPH      PTCLDY    55  55 100 CALM      30.06F
ST LOUIS       PTCLDY    61  60  97 W3        30.09R
SPIRIT OF STL  CLEAR     55  55 100 CALM      30.08R
KIRKSVILLE     CLOUDY    55  53  93 CALM      30.11R
WICHITA        PTCLDY    59  55  87 SE3       30.04S
TOPEKA         PTCLDY    59  59 100 CALM      30.05S
OLATHE         CLEAR     58  58 100 CALM      30.07S

......TENNESSEE......

CITY           SKY/WX    TMP DP  RH WIND       PRES   REMARKS
MEMPHIS        CLEAR     65  59  81 NE7       30.01S
NASHVILLE      CLEAR     62  58  86 NW3       30.02R

......ARKANSAS.......

CITY           SKY/WX    TMP DP  RH WIND       PRES   REMARKS
FAYETTEVILLE   FOG       58  58 100 CALM      30.06R VSB 1/4
FT SMITH       CLEAR     68  68 100 NE5       30.02R
LITTLE ROCK    PTCLDY    65  62  90 N6        30.01S

......OKLAHOMA.......

CITY           SKY/WX    TMP DP  RH WIND       PRES   REMARKS
TULSA          CLEAR     65  60  84 CALM      30.01S
PONCA CITY     CLEAR     57  54  89 NE5       30.02S
MCALESTER      CLOUDY    71  69  93 CALM      30.01S
OKLAHOMA CITY  PTCLDY    64  59  83 CALM      30.01S

......IOWA............

CITY           SKY/WX    TMP DP  RH WIND       PRES   REMARKS
DES MOINES     CLOUDY    63  58  83 E7        30.06R
QUAD CITIES    CLOUDY    57  54  89 CALM      30.09R

......ILLINOIS........

CITY           SKY/WX    TMP DP  RH WIND       PRES   REMARKS
QUINCY         CLOUDY    60  56  86 CALM      30.09R
CHICAGO        PTCLDY    61  54  77 W5        30.06R




USA.gov is the U.S. government's official web portal to all federal, state and local government web resources and services.